#timestamp,LO_Frequency,Hit,StdDev 
1570435215.4,286047002.0,N
1570435235.3,286047002.8,N
1570435255.1,286047002.1,N
1570435275.8,286047002.4,N
1570435295.7,286047002.8,N
1570435315.5,286047002.1,N
1570435335.4,286047001.8,N
1570435355.2,286047001.3,N
1570435375.0,286047002.6,N
1570435375.9,286047002.6,N
1570435395.8,286047002.0,N
1570435415.6,286047001.9,N
1570435435.5,286047001.4,N
1570435455.3,286047001.8,N
1570435475.1,286047002.1,N
1570435495.9,286047000.0,N
1570435515.7,286047000.7,N
1570435535.5,286047000.1,N
1570435555.4,286047002.4,N
1570435575.2,286047002.5,N
1570435595.1,286047001.4,N
1570435596.0,286047001.4,N
1570435615.8,286047001.7,N
1570435635.6,286047002.6,N
1570435655.5,286047002.5,N
1570435675.3,286047002.0,N
1570435695.2,286047001.5,N
1570435715.9,286047004.4,Y
1570435735.7,286047000.2,P
1570435755.6,286047001.6,N
1570435775.4,286047000.3,N
1570435795.2,286047000.8,N
1570435815.1,286047002.3,Y
1570435816.0,286047002.3,P
1570435835.8,286046999.9,N
1570435855.7,286047002.6,N
1570435875.5,286047002.4,N
1570435895.3,286047002.1,N
1570435915.2,286047000.2,N
1570435935.0,286046998.2,N
1570435935.9,286046998.2,N
1570435955.8,286047000.7,N
1570435975.6,286047000.4,N
1570435995.4,286047002.4,N
1570436015.3,286047000.7,N
1570436035.1,286046998.8,N
1570436055.9,286046996.9,N
1570436075.7,286046997.3,N
1570436095.5,286046997.6,N
1570436115.4,286046997.7,N
1570436135.2,286046997.9,N
1570436155.0,286046997.5,N
1570436155.9,286046997.5,N
1570436175.8,286046999.4,N
1570436195.6,286046999.3,N
1570436215.5,286046997.0,N
1570436235.3,286046997.0,N
1570436255.1,286046999.0,N
1570436275.9,286046998.2,N
1570436295.7,286046998.9,N
1570436315.6,286046998.6,N
1570436335.4,286047000.3,N
1570436355.2,286047000.5,N
1570436375.1,286046998.4,N
1570436376.0,286046998.4,N
1570436395.8,286046999.0,N
1570436415.7,286046997.2,N
1570436435.5,286046997.1,N
1570436455.3,286046999.6,N
1570436475.2,286046999.0,N
1570436495.0,286046998.3,N
1570436495.9,286046998.3,N
1570436515.7,286046999.9,N
1570436535.6,286047002.2,N
1570436555.4,286047002.4,N
1570436575.3,286047001.9,N
1570436595.1,286047002.2,N
1570436615.8,286047002.7,N
1570436635.7,286047000.1,N
1570436655.5,286047001.0,N
1570436675.4,286047002.0,N
1570436695.2,286047001.7,N
1570436715.0,286047002.5,N
1570436715.9,286047002.5,N
1570436735.8,286047002.8,N
1570436755.6,286047002.1,N
1570436775.4,286047002.3,N
1570436795.3,286047000.9,N
1570436815.1,286047001.2,N
1570436835.9,286047000.7,N
1570436855.7,286047000.9,N
1570436875.5,286047002.8,N
1570436895.4,286047002.8,N
1570436915.2,286047002.8,N
1570436935.0,286047000.6,N
1570436936.0,286047000.6,N
1570436955.8,286046998.6,N
1570436975.6,286047000.8,N
1570436995.5,286047000.2,N
1570437015.3,286047000.3,N
1570437035.1,286047000.0,N
1570437055.9,286047002.8,N
1570437075.7,286047002.3,N
1570437095.6,286047002.0,N
1570437115.4,286047002.4,N
1570437135.2,286047000.2,N
1570437155.1,286047002.1,N
1570437156.0,286047002.1,N
1570437175.8,286047002.0,N
1570437195.6,286047001.5,N
1570437215.5,286047002.6,N
1570437235.3,286047000.5,N
1570437255.2,286047002.8,N
1570437275.9,286047002.2,N
1570437295.7,286047002.6,N
1570437315.6,286047000.9,N
1570437335.4,286046998.7,N
1570437355.3,286047000.5,N
1570437375.1,286047000.6,N
1570437376.0,286047000.6,N
1570437395.8,286046999.5,N
1570437415.7,286046999.5,N
1570437435.5,286046996.8,N
1570437455.3,286046999.1,N
1570437475.2,286046999.2,N
1570437495.0,286046997.1,N
1570437495.9,286046997.1,N
1570437515.8,286046996.7,N
1570437535.6,286046996.7,N
1570437555.4,286046996.7,N
1570437575.3,286046998.2,N
1570437595.1,286046996.9,N
1570437615.9,286047000.7,N
1570437635.7,286047000.0,N
1570437655.5,286047000.4,N
1570437675.4,286046998.8,N
1570437695.2,286046996.5,N
1570437715.0,286046998.9,N
1570437715.9,286046998.9,N
1570437735.8,286046998.6,N
1570437755.6,286046998.6,N
1570437775.5,286046998.4,N
1570437795.3,286047000.6,N
1570437815.1,286047000.3,N
1570437835.9,286046999.3,N
1570437855.7,286046999.3,N
1570437875.6,286046998.8,N
1570437895.4,286047011.9,Y
1570437915.2,286047002.6,P
1570437935.1,286047000.4,N
1570437936.0,286047000.4,N
1570437955.8,286046998.1,N
1570437975.6,286047000.7,N
1570437995.5,286046996.6,N
1570438015.3,286046997.1,N
1570438035.2,286046999.6,N
1570438055.9,286046998.3,N
1570438075.7,286046999.1,N
1570438095.6,286046996.7,N
1570438115.4,286046997.0,N
1570438135.3,286046996.5,N
1570438155.1,286046997.1,N
1570438156.0,286046997.1,N
1570438175.8,286046998.9,N
1570438195.7,286046999.0,N
1570438215.5,286046998.9,N
1570438235.3,286046998.6,N
1570438255.2,286046998.3,N
1570438275.0,286046999.6,N
1570438275.9,286046999.6,N
1570438295.8,286046997.9,N
1570438315.6,286046995.0,Y
1570438335.4,286046999.5,P
1570438355.3,286046998.3,P
1570438375.1,286046998.4,P
1570438395.9,286046998.4,Y
1570438415.7,286047000.4,P
1570438435.5,286047000.4,N
1570438455.4,286047001.0,N
1570438475.2,286046999.7,N
1570438495.1,286047002.8,Y
1570438496.0,286047002.8,P
1570438515.8,286047002.2,N
1570438535.6,286046999.7,N
1570438555.5,286047000.4,N
1570438575.3,286047002.0,N
1570438595.1,286047002.8,N
1570438615.9,286046999.7,N
1570438635.7,286046998.2,N
1570438655.6,286047000.7,N
1570438675.4,286047000.4,N
1570438695.2,286047002.8,N
1570438715.1,286047002.2,N
1570438716.0,286047002.2,N
1570438735.8,286047002.2,N
1570438755.7,286047002.3,N
1570438775.5,286047002.7,N
1570438795.3,286047001.6,N
